Location: Enborne
(51.3833°N, 1.3667°W)
Time: 23:20:35
(UTC+00:00)

Cosmos 1844 Rocket - Pass Details

Date: 18 September 2020
Orbit: 823 x 846 km, 71.0° (Epoch: 30 October)

Event Time Altitude Azimuth Distance (km) Brightness Sun altitude
Rises 21:22:15 0° 227° (SW) 3,351 5.9 -27.6°
Reaches altitude 10° 21:24:45 10° 233° (SW) 2,424 5.1 -27.9°
Maximum altitude 21:30:08 49° 308° (NW) 1,062 3.5 -28.5°
Drops below altitude 10° 21:35:34 10° 23° (NNE) 2,449 5.4 -29.1°
Sets 21:38:07 0° 29° (NNE) 3,389 6.1 -29.3°
